FW7873 Weather Reports


Display with metric or nautical units.
time (UTC)temp
F
wind
direction
speed
MPH
gust
MPH
rain 1hr
in
rain 24hr
in
rain mn
in
humidity
%
barometer
mb
20260502151609 43 348 4.0 12.0 0.00 0.00 0.00 52 1018.7
20260502150106 42 360 3.0 11.0 0.00 0.00 0.00 54 1018.7
20260502130111 38 360 4.0 10.0 0.00 0.00 0.00 70 1018.8
20260502123100 37 360 2.0 9.0 0.00 0.00 0.00 73 1018.7
20260502121559 36 360 2.0 12.0 0.00 0.00 0.00 74 1018.6
20260502114557 35 360 3.0 9.0 0.00 0.00 0.00 75 1018.6
20260502113057 35 5 3.0 9.0 0.00 0.00 0.00 76 1018.4
20260502111606 34 5 3.0 8.0 0.00 0.00 0.00 77 1018.2
20260502110058 34 9 3.0 8.0 0.00 0.00 0.00 78 1018.2
20260502104557 34 337 1.0 5.0 0.00 0.00 0.00 78 1018.2
20260502103057 34 352 0.0 3.0 0.00 0.00 0.00 76 1018.2
20260502101556 35 0 0.0 3.0 0.00 0.00 0.00 75 1018.0
20260502090114 37 0 0.0 4.0 0.00 0.00 0.00 70 1017.7
20260502070107 39 0 1.0 4.0 0.00 0.00 0.00 66 1017.4
20260502064558 39 336 0.0 6.0 0.00 0.00 0.00 66 1017.4
20260502063057 39 343 1.0 5.0 0.00 0.00 0.00 67 1017.5
20260502061555 39 345 1.0 5.0 0.00 0.00 0.00 66 1017.5
20260502060058 40 0 0.0 3.0 0.00 0.00 0.00 65 1017.7
20260502054556 40 0 0.0 4.0 0.00 0.00 0.00 65 1017.8
20260502053119 40 44 1.0 5.0 0.00 0.00 0.00 65 1017.8
20260502051607 40 317 3.0 8.0 0.00 0.00 0.00 66 1017.8
20260502050057 40 352 1.0 8.0 0.00 0.00 0.00 66 1017.8
20260502044557 40 341 1.0 8.0 0.00 0.00 0.00 67 1017.6
20260502043112 40 328 1.0 3.0 0.00 0.00 0.00 70 1017.5
20260502041631 40 0 0.0 3.0 0.00 0.00 0.00 70 1017.4
20260502040059 40 24 0.0 5.0 0.00 0.00 0.00 69 1017.2
20260502034556 40 24 1.0 8.0 0.00 0.00 0.00 71 1017.1
20260502033106 40 352 1.0 10.0 0.00 0.00 0.00 70 1017.0
20260502031601 41 355 4.0 11.0 0.00 0.00 0.00 68 1016.9
20260502030100 42 5 2.0 6.0 0.00 0.00 0.00 69 1016.9
20260502024557 42 346 0.0 2.0 0.00 0.00 0.00 69 1017.0
20260502023059 42 5 1.0 4.0 0.00 0.00 0.00 69 1016.8
20260502021600 42 331 1.0 4.0 0.00 0.00 0.00 69 1016.8
20260502020110 42 348 2.0 9.0 0.00 0.00 0.00 67 1016.8
20260502014557 42 339 3.0 8.0 0.00 0.00 0.00 67 1016.7
20260502013101 43 321 3.0 9.0 0.00 0.00 0.00 66 1016.6
20260502011608 43 360 2.0 8.0 0.00 0.00 0.00 66 1016.5
20260502010104 43 333 1.0 8.0 0.00 0.00 0.00 66 1016.4
20260502004600 43 360 1.0 4.0 0.00 0.00 0.00 67 1016.2
20260502003056 43 327 0.0 6.0 0.00 0.00 0.00 66 1016.2
20260502001602 43 48 2.0 6.0 0.00 0.00 0.00 67 1016.1
20260502000056 43 337 0.0 9.0 0.00 0.00 0.00 66 1016.1
20260501234600 44 360 3.0 9.0 0.00 0.00 0.00 66 1015.9
20260501233106 44 344 3.0 9.0 0.00 0.00 0.00 65 1015.8
20260501231626 44 35 3.0 10.0 0.00 0.00 0.00 65 1015.8
20260501230058 44 360 3.0 10.0 0.00 0.00 0.00 65 1015.8
20260501224559 45 352 4.0 10.0 0.00 0.00 0.00 64 1015.8
20260501223119 45 288 3.0 9.0 0.00 0.00 0.00 63 1015.7
20260501221558 45 360 4.0 10.0 0.00 0.00 0.00 62 1015.7
20260501220058 46 10 3.0 12.0 0.00 0.00 0.00 62 1015.6
20260501214558 46 335 3.0 11.0 0.00 0.00 0.00 60 1015.4
20260501213100 46 360 3.0 11.0 0.00 0.00 0.00 60 1015.1
20260501211555 47 328 1.0 10.0 0.00 0.00 0.00 60 1015.0
20260501210059 47 317 2.0 10.0 0.00 0.00 0.00 58 1014.9
20260501204620 47 270 2.0 10.0 0.00 0.00 0.00 59 1014.8
20260501203057 48 343 2.0 9.0 0.00 0.00 0.00 59 1014.7
20260501201604 48 352 3.0 12.0 0.00 0.00 0.00 58 1014.8
20260501200056 48 355 6.0 13.0 0.00 0.00 0.00 57 1014.6
20260501194557 49 346 3.0 11.0 0.00 0.00 0.00 55 1014.6
20260501193056 48 360 3.0 10.0 0.00 0.00 0.00 55 1014.4
20260501191600 48 360 3.0 11.0 0.00 0.00 0.00 58 1014.5
20260501190057 48 41 4.0 9.0 0.00 0.00 0.00 54 1014.4
20260501184603 49 360 2.0 12.0 0.00 0.00 0.00 54 1014.3
20260501183103 48 240 3.0 7.0 0.00 0.00 0.00 57 1014.3
20260501181600 48 25 3.0 11.0 0.00 0.00 0.00 56 1014.3
20260501174609 48 348 4.0 11.0 0.00 0.00 0.00 55 1014.2
20260501173058 48 332 4.0 12.0 0.00 0.00 0.00 57 1014.1
20260501171557 48 303 4.0 14.0 0.00 0.00 0.00 55 1014.3
20260501170056 47 26 3.0 12.0 0.00 0.00 0.00 61 1014.2
20260501164555 47 340 4.0 12.0 0.00 0.00 0.00 59 1014.3
20260501163057 47 15 4.0 10.0 0.00 0.00 0.00 58 1014.3
20260501161606 47 346 2.0 10.0 0.00 0.00 0.00 58 1014.2
20260501154601 47 217 3.0 10.0 0.00 0.00 0.00 61 1014.1
20260501153057 46 338 1.0 10.0 0.00 0.00 0.00 65 1014.1